Location: München
(48.1351°N, 11.5820°E)
Time: 19:33:41
(UTC+02:00)

ISS - Pass Details

Date: 24 May 2021
Orbit: 417 x 422 km, 51.6° (Epoch: 16 June)

Event Time Altitude Azimuth Distance (km) Brightness Sun altitude
Rises 22:59:10 0° 291° (WNW) 2,367 1.0 -14.9°
Reaches altitude 10° 23:01:17 10° 294° (WNW) 1,503 -0.1 -15.1°
Maximum altitude 23:04:38 69° 18° (NNE) 454 -3.5 -15.4°
Enters shadow 23:06:35 23° 98° (E) 944 -2.3 -15.6°
